{"data":{"norad_id":44344,"intl_designator":"2019-036F","name":"DSX","alt_names":[],"object_type":"PAYLOAD","status":"ACTIVE","operator":null,"country":"US","launch_date":"2019-06-25","launch_site_code":"AFETR","launch_vehicle":null,"mission":null,"orbit_class":"UNKNOWN","rcs_meters":null,"size_class":null,"mass_kg":null,"dimensions":null,"purposes":[],"wikipedia_slug":null,"has_3d_model":false,"image_url":null,"decayed_at":null,"tle_current":{"epoch":"2026-09-17T09:27:07.583328Z","epoch_age_seconds":326836,"freshness":"STALE","line1":"1 44344U 19036F   26260.39383777 -.00000046  00000+0  00000+0 0  9990","line2":"2 44344  42.3027 316.9956 1967353  55.3795 321.6933  4.54371400119989","mean_motion":4.543714,"eccentricity":0.1967353,"inclination_deg":42.3027,"raan_deg":316.9956,"arg_perigee_deg":55.3795,"mean_anomaly_deg":321.6933,"bstar":0,"rev_number":11998,"period_min":316.92135552546,"perigee_km":5990.4436472368,"apogee_km":12049.060250726,"semimajor_km":15397.888948981,"source":"CELESTRAK","updated_at":"2026-09-20T09:00:14.461926Z"}}}